Wind_Speed
43 48 54 59 62 62 61 61 65 75 87 95 97 98 97 94 90 87 83 78 74 73 72 73 72 69 67 64 61 58 56 52 49 49 51 53 55 55
40 44 49 55 60 61 61 60 61 67 78 89 94 95 97 95 91 88 85 81 77 75 74 73 72 70 68 66 63 61 58 54 52 50 50 53 55 57
38 41 45 51 56 60 60 59 59 61 70 81 89 93 93 93 91 89 86 83 80 76 74 74 73 71 69 67 65 63 60 57 54 52 51 52 54 57
37 39 42 46 52 56 58 58 57 57 62 73 84 90 90 90 90 89 87 85 82 80 76 74 73 71 70 68 67 64 62 59 56 53 52 50 51 55
36 37 39 43 48 52 55 56 55 55 56 64 77 86 88 87 88 88 88 87 85 81 79 76 74 72 71 69 68 66 63 61 58 56 53 51 50 51
35 35 36 39 44 48 52 53 53 52 52 56 68 81 87 87 86 87 88 88 86 84 81 79 76 74 72 70 68 66 65 62 60 57 55 53 50 49
33 33 34 36 41 45 48 50 50 50 49 51 58 72 85 89 87 85 86 87 87 86 83 81 78 75 73 71 69 67 66 64 61 59 57 55 53 51
30 31 32 34 37 41 45 47 48 47 47 47 50 61 76 88 90 87 85 86 86 85 84 82 80 77 74 72 70 68 66 65 63 61 59 57 55 53
25 27 29 31 34 38 42 44 45 45 45 44 45 52 66 81 88 87 86 86 86 85 85 84 82 79 76 73 71 69 67 66 64 62 61 59 58 56
22 24 26 29 31 35 39 42 43 43 42 42 42 45 55 69 81 87 87 86 85 85 84 84 83 80 77 75 72 70 68 66 65 63 62 61 60 59
18 21 23 26 29 33 37 39 40 40 40 39 39 41 46 56 70 79 85 86 85 84 84 82 82 81 78 76 74 71 69 67 65 64 63 62 61 60
14 17 20 23 27 31 35 37 38 39 38 37 37 39 41 48 58 69 77 83 84 83 82 81 80 81 79 77 74 72 69 68 66 64 63 62 61 60
10 14 18 21 25 29 33 35 37 37 36 36 36 37 38 42 49 57 66 74 78 80 81 79 78 78 78 77 75 73 71 68 67 66 64 62 61 60
8 12 16 20 24 28 32 34 36 36 35 34 34 35 36 39 43 50 56 63 69 73 76 77 76 75 74 75 73 71 70 68 67 66 64 63 62 61
4 9 13 18 23 26 31 34 35 35 34 33 33 33 34 36 40 45 50 55 61 65 68 70 71 70 70 70 70 69 67 66 66 65 63 63 62 62
1 5 10 16 21 25 29 33 35 35 34 33 33 33 33 34 37 40 45 50 54 59 61 64 65 65 65 66 66 65 64 62 61 61 61 62 62 61
6 2 7 12 18 24 28 32 35 36 35 34 33 33 34 34 35 37 40 45 48 53 57 60 61 62 61 61 61 62 61 61 60 59 59 59 60 61
13 5 3 9 15 21 26 30 34 36 36 35 34 34 34 35 35 36 38 41 43 47 52 57 60 61 61 60 59 59 59 60 60 60 61 61 61 61
22 13 5 4 11 18 24 29 33 35 37 37 36 35 35 35 36 37 38 40 41 43 47 53 56 58 59 59 60 60 59 59 60 61 61 61 61 62
32 23 13 4 5 13 20 26 31 35 37 38 38 38 37 37 37 38 38 39 41 42 45 49 52 55 57 56 57 57 58 57 57 58 59 59 60 60
37 32 23 12 4 6 14 22 28 33 36 39 40 40 39 38 38 39 40 40 41 41 44 47 49 52 53 54 54 54 54 55 55 54 55 55 56 55
39 36 30 23 13 3 7 16 23 30 35 38 40 41 41 41 40 40 41 41 42 42 44 46 48 49 50 51 51 51 51 51 51 50 50 50 49 47
40 37 34 29 21 12 3 9 17 25 31 37 40 42 43 43 43 42 43 42 42 43 44 46 47 48 50 50 50 50 50 49 48 47 46 45 45 44
Wind_Direction
245 238 232 229 227 227 227 224 222 221 220 217 216 217 218 219 220 220 220 220 220 220 221 221 222 222 222 223 224 226 227 228 229 230 229 228 227 226
246 239 233 229 226 225 226 225 222 220 220 219 217 216 217 218 219 219 220 219 219 220 221 221 222 222 222 223 224 226 228 229 230 231 229 228 227 227
246 239 234 229 226 224 224 224 223 220 218 218 218 216 216 217 218 219 219 219 218 219 220 221 222 222 222 223 224 225 227 229 230 230 229 228 227 227
243 238 233 228 225 223 223 223 223 221 218 217 217 216 214 215 216 217 217 218 218 218 219 220 222 223 223 223 223 225 227 228 229 230 231 230 228 228
239 235 232 227 224 221 221 221 221 221 218 216 216 215 213 212 214 214 215 217 218 218 218 219 221 222 223 223 224 224 226 228 230 231 232 232 231 230
234 232 229 226 222 220 219 219 219 220 219 217 215 215 212 210 211 213 214 215 217 217 218 219 220 221 222 223 224 225 226 227 229 231 233 234 234 232
228 227 226 224 220 218 217 216 217 218 218 217 215 214 213 211 209 209 212 213 215 216 217 218 219 221 222 223 224 224 225 227 228 230 232 233 235 235
221 222 221 220 218 216 214 214 215 216 217 217 215 214 214 212 210 208 208 211 214 215 217 218 219 220 221 223 224 224 225 226 227 229 231 233 235 236
214 216 217 216 215 213 212 212 212 213 215 216 215 214 213 213 212 210 209 209 211 213 216 217 218 219 220 222 223 224 225 226 227 229 230 232 234 236
208 211 212 212 211 210 209 209 210 211 213 214 215 214 213 213 214 213 211 210 211 212 215 216 217 218 219 221 222 223 225 226 227 228 229 231 234 236
202 208 209 208 207 207 207 207 208 209 210 213 213 213 212 212 213 214 214 213 213 214 214 216 217 219 219 220 221 223 223 225 227 228 229 231 233 236
200 206 207 206 205 204 204 205 206 207 209 210 211 211 210 209 210 212 214 214 215 215 215 216 217 219 220 220 221 222 223 224 226 227 229 231 233 235
201 204 205 204 203 202 202 203 204 205 206 208 209 209 208 208 208 209 211 213 214 215 216 216 218 219 221 222 223 224 225 226 227 228 229 231 233 236
205 207 206 204 202 201 201 201 202 203 204 206 207 207 206 207 206 206 208 210 213 215 216 217 218 220 221 223 224 225 227 227 228 230 232 233 235 237
213 211 208 206 203 202 201 201 201 201 202 203 204 204 204 204 204 204 205 206 209 212 214 216 218 220 221 223 225 225 227 229 230 232 233 235 236 238
294 218 212 208 205 203 202 202 201 201 200 201 201 201 201 200 200 202 203 203 205 207 210 212 214 217 219 222 224 225 226 228 230 231 232 234 235 237
8 266 220 211 208 205 203 203 202 201 200 199 200 199 198 197 197 197 199 200 201 203 205 207 209 212 214 218 221 222 223 224 225 227 229 231 233 235
19 3 252 217 211 208 206 205 204 203 201 200 199 198 197 196 195 195 195 196 199 200 200 202 204 207 210 212 215 219 220 221 222 223 226 228 230 232
26 20 4 237 216 211 208 207 206 205 204 201 200 198 197 196 195 194 194 195 197 198 198 199 200 203 205 207 209 212 216 218 220 221 224 226 228 229
29 26 21 2 231 215 211 209 208 207 206 204 202 200 198 197 196 195 194 194 196 197 196 196 198 200 202 205 209 211 213 216 218 220 222 224 226 228
29 28 27 21 357 228 215 212 211 209 208 207 205 204 201 199 198 197 197 196 196 196 197 196 196 197 199 201 204 208 212 214 216 219 222 224 227 230
27 28 27 25 20 344 226 216 213 212 210 209 208 206 205 202 201 199 198 198 197 197 197 198 198 198 199 201 203 206 210 214 216 219 221 223 226 228
25 25 26 25 23 16 329 226 217 214 213 212 211 209 207 206 203 202 200 199 199 198 199 199 199 200 201 202 203 204 207 211 214 216 217 219 222 225
Height
5379 5384 5391 5400 5410 5419 5429 5440 5451 5462 5475 5491 5506 5522 5538 5554 5569 5583 5598 5612 5624 5636 5647 5659 5670 5682 5693 5704 5712 5720 5728 5735 5742 5748 5755 5761 5768 5774
5365 5370 5376 5384 5394 5404 5414 5425 5436 5447 5459 5472 5488 5504 5520 5537 5552 5568 5582 5597 5610 5622 5634 5645 5657 5669 5681 5692 5702 5710 5718 5725 5732 5739 5744 5751 5758 5765
5352 5356 5362 5370 5379 5389 5399 5410 5421 5432 5444 5456 5470 5486 5503 5520 5536 5552 5567 5581 5595 5608 5621 5633 5644 5656 5668 5679 5689 5699 5708 5716 5723 5729 5735 5742 5749 5756
5338 5344 5350 5357 5366 5375 5386 5397 5407 5419 5430 5442 5453 5469 5487 5503 5519 5536 5551 5566 5580 5594 5607 5619 5632 5643 5655 5666 5677 5688 5697 5705 5713 5720 5727 5734 5741 5747
5326 5332 5338 5345 5354 5363 5373 5384 5395 5406 5417 5428 5439 5453 5471 5487 5503 5519 5535 5551 5566 5580 5593 5606 5618 5630 5642 5654 5665 5676 5686 5696 5704 5711 5717 5724 5731 5737
5314 5321 5328 5334 5343 5352 5362 5373 5384 5395 5406 5416 5426 5438 5454 5471 5487 5503 5519 5535 5551 5565 5578 5592 5605 5617 5630 5642 5654 5664 5674 5683 5692 5700 5708 5715 5721 5728
5305 5312 5318 5325 5333 5342 5352 5363 5374 5385 5395 5405 5414 5425 5439 5455 5472 5488 5504 5519 5534 5549 5564 5579 5593 5606 5616 5628 5640 5651 5662 5672 5681 5690 5697 5704 5711 5717
5297 5304 5311 5318 5325 5334 5344 5354 5365 5375 5385 5395 5403 5413 5424 5439 5456 5471 5488 5504 5521 5538 5551 5564 5578 5591 5603 5616 5627 5638 5649 5660 5669 5678 5687 5694 5701 5707
5292 5299 5305 5312 5319 5328 5337 5347 5357 5367 5377 5386 5394 5402 5412 5426 5444 5462 5475 5489 5506 5521 5535 5550 5563 5577 5590 5602 5614 5625 5637 5647 5657 5666 5675 5683 5690 5696
5289 5294 5301 5308 5315 5323 5332 5341 5350 5360 5370 5378 5387 5395 5403 5415 5429 5445 5460 5476 5492 5506 5520 5535 5549 5563 5576 5589 5601 5613 5624 5635 5645 5654 5662 5671 5678 5685
5288 5294 5299 5305 5312 5319 5327 5336 5345 5354 5363 5371 5379 5387 5395 5406 5418 5432 5447 5463 5478 5492 5506 5521 5535 5549 5563 5575 5588 5600 5611 5622 5632 5641 5650 5658 5666 5674
5289 5294 5298 5303 5309 5315 5323 5332 5340 5349 5357 5366 5373 5381 5389 5398 5408 5421 5435 5450 5465 5479 5493 5509 5522 5536 5549 5562 5575 5587 5598 5609 5619 5629 5637 5646 5655 5662
5291 5294 5298 5302 5307 5313 5320 5328 5336 5344 5353 5361 5368 5376 5384 5392 5400 5411 5424 5438 5453 5468 5482 5496 5510 5524 5538 5551 5563 5575 5586 5597 5607 5616 5625 5634 5642 5650
5293 5295 5298 5301 5306 5311 5318 5325 5332 5341 5349 5356 5364 5371 5379 5386 5394 5404 5415 5428 5442 5456 5471 5485 5499 5514 5527 5539 5552 5563 5574 5585 5595 5605 5614 5622 5630 5637
5294 5295 5298 5301 5305 5310 5315 5322 5329 5337 5345 5353 5360 5367 5374 5382 5389 5398 5408 5419 5432 5445 5460 5474 5488 5501 5514 5527 5540 5552 5563 5572 5582 5592 5601 5609 5617 5625
5295 5296 5298 5300 5304 5308 5313 5320 5327 5334 5342 5349 5356 5363 5371 5378 5385 5393 5402 5412 5423 5436 5449 5463 5476 5489 5502 5514 5526 5538 5549 5559 5569 5578 5587 5596 5603 5611
5297 5297 5298 5300 5303 5306 5311 5317 5324 5331 5339 5346 5353 5360 5367 5375 5382 5389 5397 5406 5416 5427 5439 5452 5465 5477 5490 5502 5513 5525 5536 5546 5556 5565 5574 5582 5590 5597
5300 5298 5298 5299 5301 5305 5309 5315 5321 5328 5335 5343 5350 5357 5364 5371 5379 5386 5393 5402 5411 5420 5431 5443 5455 5468 5479 5490 5501 5511 5522 5532 5542 5551 5560 5569 5576 5584
5303 5300 5299 5299 5301 5303 5307 5312 5318 5325 5332 5339 5346 5354 5361 5368 5375 5383 5390 5398 5406 5414 5424 5435 5446 5458 5469 5480 5489 5499 5510 5519 5529 5538 5547 5555 5563 5571
5309 5304 5301 5300 5301 5302 5305 5310 5315 5321 5328 5335 5343 5350 5357 5364 5372 5379 5387 5394 5402 5410 5418 5428 5438 5448 5460 5471 5480 5489 5498 5508 5517 5525 5534 5542 5550 5558
5315 5310 5305 5302 5301 5302 5304 5307 5312 5317 5324 5331 5338 5345 5353 5360 5368 5375 5383 5390 5398 5405 5414 5422 5431 5441 5452 5462 5471 5480 5489 5498 5506 5515 5523 5532 5540 5548
5322 5316 5310 5306 5303 5302 5302 5305 5308 5313 5319 5325 5333 5340 5348 5355 5363 5370 5378 5386 5393 5401 5409 5417 5426 5435 5444 5454 5463 5472 5480 5489 5497 5506 5515 5523 5531 5539
5328 5321 5315 5310 5306 5303 5302 5303 5305 5309 5313 5319 5326 5334 5342 5349 5357 5365 5373 5381 5388 5396 5404 5412 5421 5430 5438 5447 5456 5464 5473 5481 5490 5498 5507 5515 5523 5530